CW6888 Weather Reports


Display with metric or nautical units.
time (UTC)temp
F
wind
direction
speed
MPH
gust
MPH
rain 1hr
in
rain 24hr
in
rain mn
in
humidity
%
barometer
mb
20260508035816 52 171 0.0 1.0 0.00 0.11 0.09 78 1011.1
20260508034828 53 360 1.0 2.0 0.00 0.11 0.09 77 1011.1
20260508033820 53 169 2.0 4.0 0.00 0.11 0.09 77 1011.1
20260508032815 53 167 1.0 2.0 0.00 0.11 0.09 76 1011.0
20260508031827 53 167 0.0 2.0 0.00 0.11 0.09 76 1010.9
20260508030818 54 167 0.0 0.0 0.00 0.11 0.09 75 1011.0
20260508025820 54 167 1.0 4.0 0.00 0.11 0.09 75 1010.9
20260508024853 54 138 1.0 6.0 0.00 0.11 0.09 74 1011.0
20260508023825 54 225 2.0 3.0 0.00 0.11 0.09 74 1011.0
20260508022816 54 235 1.0 3.0 0.00 0.11 0.09 73 1011.0
20260508021829 55 257 1.0 5.0 0.00 0.11 0.09 73 1011.0
20260508020840 55 223 2.0 4.0 0.00 0.11 0.09 72 1011.0
20260508015823 55 211 1.0 4.0 0.00 0.13 0.09 72 1010.9
20260508014836 55 233 2.0 4.0 0.00 0.13 0.09 71 1010.7
20260508013826 55 233 2.0 4.0 0.00 0.13 0.09 71 1010.7
20260508012819 55 209 1.0 3.0 0.00 0.13 0.09 70 1010.6
20260508011829 56 195 1.0 4.0 0.00 0.13 0.09 70 1010.5
20260508010821 56 132 0.0 3.0 0.00 0.13 0.09 69 1010.4
20260508005828 56 115 0.0 0.0 0.00 0.13 0.09 68 1010.1
20260508004819 56 109 0.0 0.0 0.00 0.13 0.09 67 1010.0
20260508003830 57 98 0.0 0.0 0.00 0.13 0.09 63 1009.8
20260508002824 57 98 0.0 0.0 0.00 0.13 0.09 61 1009.6
20260508001832 58 78 0.0 0.0 0.00 0.13 0.09 55 1009.6
20260508000815 59 78 0.0 0.0 0.00 0.13 0.09 54 1009.5
20260507235827 59 78 0.0 0.0 0.00 0.13 0.09 53 1009.4
20260507234834 60 78 0.0 0.0 0.00 0.13 0.09 51 1009.3
20260507233820 61 78 0.0 0.0 0.00 0.13 0.09 48 1009.1
20260507232817 61 78 0.0 0.0 0.00 0.13 0.09 49 1009.1
20260507231830 62 78 0.0 0.0 0.00 0.13 0.09 52 1009.0
20260507230823 62 78 0.0 2.0 0.00 0.13 0.09 52 1008.9
20260507225830 62 78 1.0 4.0 0.00 0.13 0.09 52 1008.9
20260507224843 62 58 2.0 6.0 0.00 0.13 0.09 49 1008.9
20260507223813 63 33 2.0 4.0 0.00 0.13 0.09 45 1008.9
20260507222824 63 23 2.0 9.0 0.00 0.13 0.09 44 1008.7
20260507221832 64 5 2.0 6.0 0.00 0.13 0.09 45 1008.7
20260507220826 64 146 1.0 5.0 0.00 0.13 0.09 45 1008.7
20260507215815 63 15 2.0 9.0 0.00 0.13 0.09 46 1008.8
20260507214831 63 151 1.0 8.0 0.00 0.13 0.09 43 1008.8
20260507213823 63 46 4.0 8.0 0.00 0.13 0.09 43 1008.9
20260507212835 63 29 6.0 11.0 0.00 0.13 0.09 41 1008.9
20260507211825 63 5 1.0 10.0 0.00 0.13 0.09 45 1009.0
20260507210838 64 40 5.0 12.0 0.00 0.13 0.09 46 1009.1
20260507205822 64 30 6.0 10.0 0.00 0.13 0.09 48 1009.1
20260507204835 64 17 2.0 6.0 0.00 0.13 0.09 46 1008.9
20260507203818 63 34 3.0 9.0 0.00 0.13 0.09 45 1008.9
20260507202840 63 25 2.0 9.0 0.00 0.13 0.09 47 1008.9
20260507201823 63 225 4.0 8.0 0.00 0.13 0.09 48 1009.0
20260507200835 63 74 3.0 10.0 0.00 0.13 0.09 45 1009.0
20260507195845 62 34 5.0 12.0 0.00 0.13 0.09 47 1009.2
20260507194817 63 39 6.0 11.0 0.00 0.13 0.09 48 1009.3
20260507193832 62 170 4.0 11.0 0.00 0.13 0.09 53 1009.4
20260507192816 62 25 4.0 10.0 0.00 0.13 0.09 51 1009.6
20260507191829 62 39 5.0 11.0 0.00 0.13 0.09 51 1009.7
20260507190821 62 17 5.0 10.0 0.00 0.13 0.09 47 1009.8
20260507185827 62 86 2.0 10.0 0.00 0.14 0.09 50 1009.9
20260507184821 61 311 2.0 14.0 0.00 0.14 0.09 55 1009.9
20260507183816 61 11 8.0 13.0 0.00 0.14 0.09 51 1010.1
20260507182830 60 100 2.0 8.0 0.00 0.14 0.09 50 1010.2
20260507181825 60 360 6.0 10.0 0.00 0.14 0.09 52 1010.4
20260507180839 60 335 6.0 12.0 0.00 0.14 0.09 55 1010.6
20260507175823 60 12 3.0 11.0 0.00 0.14 0.09 55 1010.7
20260507174835 59 43 7.0 12.0 0.00 0.14 0.09 54 1010.7
20260507173828 59 346 5.0 9.0 0.00 0.14 0.09 56 1010.7
20260507172839 59 38 5.0 11.0 0.00 0.14 0.09 54 1010.8
20260507171821 58 37 8.0 14.0 0.00 0.14 0.09 55 1010.9
20260507170815 58 39 6.0 13.0 0.00 0.14 0.09 53 1011.0
20260507165820 58 5 5.0 13.0 0.00 0.14 0.09 53 1011.3
20260507164832 58 74 7.0 14.0 0.00 0.14 0.09 57 1011.3
20260507163824 58 32 6.0 12.0 0.00 0.14 0.09 56 1011.7
20260507162817 57 15 4.0 10.0 0.00 0.14 0.09 55 1011.8
20260507161830 57 355 5.0 14.0 0.00 0.14 0.09 53 1011.8
20260507160842 56 342 3.0 12.0 0.00 0.14 0.09 57 1011.8
20260507155824 57 26 7.0 13.0 0.00 0.19 0.09 60 1012.0
20260507154817 56 346 4.0 10.0 0.00 0.19 0.09 56 1012.1
20260507153851 56 22 8.0 13.0 0.00 0.19 0.09 61 1012.0
20260507152823 55 40 7.0 12.0 0.00 0.19 0.09 61 1012.1
20260507151817 55 36 6.0 15.0 0.00 0.19 0.09 59 1012.4
20260507150830 55 48 8.0 19.0 0.00 0.19 0.09 57 1012.6
20260507145818 54 34 7.0 15.0 0.00 0.25 0.09 67 1012.5
20260507144832 53 37 5.0 12.0 0.00 0.25 0.09 66 1012.4
20260507143825 52 16 3.0 6.0 0.00 0.25 0.09 66 1012.7
20260507142813 53 51 5.0 9.0 0.00 0.25 0.09 66 1013.0
20260507141830 53 321 5.0 11.0 0.00 0.25 0.09 65 1013.0
20260507140822 52 288 4.0 10.0 0.00 0.25 0.09 67 1013.1
20260507135855 52 36 6.0 12.0 0.00 0.32 0.09 65 1013.1
20260507134817 52 349 3.0 11.0 0.00 0.32 0.09 69 1013.2
20260507133839 52 19 6.0 12.0 0.00 0.32 0.09 70 1013.3
20260507132823 51 50 5.0 8.0 0.00 0.32 0.09 71 1013.3
20260507131814 51 47 4.0 12.0 0.00 0.32 0.09 70 1013.2
20260507130827 51 28 6.0 10.0 0.00 0.32 0.09 71 1013.2
20260507125815 50 35 4.0 12.0 0.00 0.33 0.09 72 1013.2
20260507124829 50 42 5.0 10.0 0.00 0.33 0.09 71 1013.1
20260507123821 50 9 3.0 9.0 0.00 0.33 0.09 74 1013.1
20260507122835 50 21 4.0 11.0 0.00 0.33 0.09 73 1013.0
20260507121831 50 344 5.0 10.0 0.00 0.33 0.09 72 1013.0
20260507120817 49 344 4.0 9.0 0.00 0.33 0.09 72 1013.1
20260507115833 49 35 2.0 4.0 0.00 0.33 0.09 76 1013.1
20260507114819 49 343 2.0 3.0 0.02 0.33 0.09 77 1012.9
20260507113828 49 5 1.0 4.0 0.02 0.33 0.09 77 1013.0
20260507112840 48 355 0.0 2.0 0.02 0.33 0.09 77 1012.8
20260507111900 48 30 0.0 5.0 0.02 0.33 0.09 79 1012.7
20260507110824 48 355 2.0 4.0 0.02 0.33 0.09 81 1012.6
20260507105841 48 20 0.0 0.0 0.02 0.33 0.09 81 1012.5
20260507104825 48 28 0.0 0.0 0.00 0.31 0.07 82 1012.6
20260507103817 48 12 0.0 1.0 0.00 0.31 0.07 82 1012.6
20260507102829 48 13 1.0 3.0 0.00 0.31 0.07 82 1012.2
20260507101822 48 16 0.0 0.0 0.00 0.31 0.07 83 1012.1
20260507100814 48 17 1.0 3.0 0.00 0.31 0.07 84 1012.0
20260507095820 48 13 1.0 3.0 0.00 0.31 0.07 84 1011.9
20260507094833 48 32 2.0 3.0 0.00 0.31 0.07 84 1011.9
20260507093826 48 11 2.0 5.0 0.00 0.31 0.07 85 1011.9
20260507092837 48 13 2.0 6.0 0.00 0.31 0.07 86 1011.9
20260507091827 48 343 1.0 5.0 0.00 0.31 0.07 86 1011.8
20260507090840 48 5 3.0 6.0 0.00 0.31 0.07 87 1011.7
20260507085825 48 51 3.0 9.0 0.00 0.31 0.07 88 1011.5
20260507084836 49 16 4.0 9.0 0.00 0.31 0.07 89 1011.4
20260507083819 49 10 4.0 8.0 0.00 0.31 0.07 90 1011.3
20260507082831 50 20 2.0 8.0 0.00 0.31 0.07 91 1011.2
20260507081821 50 311 2.0 5.0 0.00 0.31 0.07 91 1011.1
20260507080833 50 355 0.0 0.0 0.00 0.31 0.07 91 1011.3
20260507075818 50 355 0.0 0.0 0.01 0.31 0.07 91 1011.2
20260507074846 50 355 0.0 0.0 0.02 0.31 0.07 91 1011.0
20260507073817 50 355 0.0 0.0 0.02 0.31 0.07 91 1011.1
20260507072828 50 355 0.0 0.0 0.02 0.31 0.07 91 1011.3
20260507071819 51 355 0.0 0.0 0.03 0.31 0.07 90 1011.5
20260507070829 51 355 0.0 0.0 0.03 0.31 0.07 90 1011.5
20260507065813 51 355 0.0 2.0 0.02 0.29 0.05 90 1011.5
20260507064824 51 355 0.0 2.0 0.02 0.29 0.05 90 1011.6
20260507063816 51 344 0.0 2.0 0.02 0.29 0.05 89 1011.7
20260507062829 51 344 1.0 5.0 0.03 0.29 0.05 89 1011.9
20260507061821 51 340 2.0 10.0 0.02 0.28 0.04 88 1011.7
20260507060833 51 53 3.0 8.0 0.02 0.28 0.04 87 1011.7
20260507055813 52 28 3.0 9.0 0.01 0.27 0.03 88 1011.5
20260507054845 52 21 4.0 8.0 0.02 0.27 0.03 88 1011.8
20260507053837 52 32 3.0 8.0 0.02 0.27 0.03 88 1011.7
20260507052826 53 332 1.0 5.0 0.01 0.26 0.02 88 1011.5
20260507051818 53 22 2.0 6.0 0.01 0.26 0.02 88 1011.7
20260507050829 53 11 3.0 7.0 0.02 0.26 0.02 87 1011.6
20260507045814 53 333 4.0 9.0 0.01 0.25 0.01 88 1011.7
20260507044827 54 38 2.0 8.0 0.01 0.25 0.01 88 1011.7
20260507043818 54 9 2.0 5.0 0.01 0.25 0.01 88 1011.3
20260507042845 54 38 2.0 6.0 0.02 0.25 0.01 87 1011.4
20260507041815 55 24 4.0 6.0 0.02 0.25 0.01 87 1010.9
20260507040826 55 26 3.0 5.0 0.02 0.24 0.00 87 1011.1